This demonstration page uses our WeatherBlox Daily Observations layout. Learn more.

Left ArrowRight Arrow

39.92423, -83.80882

Hourly Observations for January 31, 2015

Temp ( °F °C ) Dew Point ( °F °C ) Humidity (%) Winds ( mph kmh ) Pressure ( in mb ) Visibility ( mi km ) Precip ( " mm )
12:56 am 00:56 Clear 12 -11.1 10 -12.2 92 92 Calm 30.46 1032 9 14 0.00 0.00
1:56 am 01:56 Clear 14 -10 11 -11.6 88 88 S 3 6 30.45 1031 9 14 0.00 0.00
2:56 am 02:56 Clear 14 -10 10 -12.2 84 84 S 3 6 30.44 1031 10 16 0.00 0.00
3:56 am 03:56 Clear 15 -9.4 11 -11.6 84 84 S 5 7 30.43 1030 9 14 0.00 0.00
4:56 am 04:56 Clear 15 -9.4 11 -11.6 84 84 S 5 7 30.41 1030 9 14 0.00 0.00
5:56 am 05:56 Clear 15 -9.4 11 -11.6 84 84 S 5 7 30.41 1030 9 14 0.00 0.00
6:56 am 06:56 Clear 16 -8.8 11 -11.6 80 80 S 6 9 30.40 1030 9 14 0.00 0.00
7:56 am 07:56 Sunny 16 -8.8 12 -11.1 84 84 S 7 11 30.41 1030 7 11 0.00 0.00
8:56 am 08:56 Sunny 20 -6.6 14 -10 77 77 SSW 9 15 30.40 1030 8 13 0.00 0.00
9:56 am 09:56 Partly Cloudy 24 -4.4 17 -8.3 75 75 SSW 10 17 30.41 1030 8 13 0.00 0.00
10:56 am 10:56 Sunny 27 -2.7 18 -7.7 69 69 SSW 10 17 30.41 1030 8 13 0.00 0.00
11:56 am 11:56 Sunny 31 -0.5 21 -6.1 66 66 SW 13 20 30.38 1029 8 13 0.00 0.00
12:56 pm 12:56 Sunny 33 0.5 22 -5.5 64 64 SW 14 22 30.35 1028 8 13 0.00 0.00
1:56 pm 13:56 Sunny 34 1.1 22 -5.5 62 62 SW 10 17 30.32 1027 9 14 0.00 0.00
2:56 pm 14:56 Sunny 34 1.1 24 -4.4 67 67 SSW 8 13 30.30 1026 8 13 0.00 0.00
3:56 pm 15:56 Mostly Sunny 34 1.1 23 -5 64 64 SW 10 17 30.29 1026 8 13 0.00 0.00
4:56 pm 16:56 Sunny 34 1.1 23 -5 64 64 SSW 7 11 30.28 1025 8 13 0.00 0.00
5:56 pm 17:56 Clear 33 0.5 24 -4.4 70 70 SSW 7 11 30.30 1026 8 13 0.00 0.00
6:56 pm 18:56 Cloudy 33 0.5 23 -5 67 67 S 6 9 30.29 1026 10 16 0.00 0.00
7:21 pm 19:21 Cloudy 34 1 23 -5 65 65 S 7 11 30.30 1026 10 16 0.00 0.00
7:56 pm 19:56 Cloudy 34 1.1 24 -4.4 67 67 SW 10 17 30.29 1026 9 14 0.00 0.00
8:10 pm 20:10 Cloudy 34 1 25 -4 70 70 SSW 9 15 30.30 1026 10 16 0.00 0.00
8:56 pm 20:56 Mostly Cloudy 33 0.5 24 -4.4 70 70 SSW 8 13 30.28 1025 10 16 0.00 0.00
9:13 pm 21:13 Cloudy 34 1 25 -4 70 70 SSW 8 13 30.30 1026 10 16 0.00 0.00
9:56 pm 21:56 Cloudy 33 0.5 25 -3.8 73 73 SSW 8 13 30.26 1025 9 14 0.00 0.00
10:49 pm 22:49 Cloudy with Light Wintry Mix 34 1 27 -3 75 75 SSW 8 13 30.27 1025 4 6 0.00 0.03
10:56 pm 22:56 Cloudy with Light Wintry Mix 33 0.5 27 -2.7 79 79 SW 9 15 30.25 1024 4 6 0.00 0.03
11:56 pm 23:56 Cloudy with Light Wintry Mix 32 0 30 -1.1 92 92 SW 9 15 30.24 1024 3 5 0.00 0.03

Powered by AerisWeather